Time,TemperatureF,DewpointF,PressureIn,WindDirection,WindDirectionDegrees,WindSpeedMPH,WindSpeedGustMPH,Humidity,HourlyPrecipIn,Conditions,Clouds,dailyrainin,SolarRadiationWatts/m^2,SoftwareType,DateUTC
2013-01-16 00:08:00,19.3,17.0,30.13,SW,231,0.0,0.0,92,0.00,,,0.00,0,weatherlink.com 1.10,2013-01-16 05:08:00,
2013-01-16 00:23:00,20.4,19.0,30.12,SW,231,0.0,0.0,93,0.00,,,0.00,0,weatherlink.com 1.10,2013-01-16 05:23:00,
2013-01-16 00:38:00,20.3,19.0,30.12,SW,231,0.0,0.0,93,0.00,,,0.00,0,weatherlink.com 1.10,2013-01-16 05:38:00,
2013-01-16 00:53:00,19.9,18.0,30.11,SW,231,0.0,0.0,93,0.00,,,0.00,0,weatherlink.com 1.10,2013-01-16 05:53:00,
2013-01-16 01:08:00,18.6,17.0,30.10,SW,231,0.0,0.0,92,0.00,,,0.00,0,weatherlink.com 1.10,2013-01-16 06:08:00,
2013-01-16 01:23:00,17.9,16.0,30.08,SW,231,0.0,0.0,92,0.00,,,0.00,0,weatherlink.com 1.10,2013-01-16 06:23:00,
2013-01-16 01:38:00,17.7,16.0,30.08,SW,231,0.0,0.0,92,0.00,,,0.00,0,weatherlink.com 1.10,2013-01-16 06:38:00,
2013-01-16 01:53:00,17.5,16.0,30.09,SW,231,0.0,0.0,92,0.00,,,0.00,0,weatherlink.com 1.10,2013-01-16 06:53:00,
2013-01-16 02:08:00,17.8,16.0,30.09,SW,231,0.0,0.0,93,0.00,,,0.00,0,weatherlink.com 1.10,2013-01-16 07:08:00,
2013-01-16 02:23:00,17.5,16.0,30.07,SW,231,0.0,0.0,93,0.00,,,0.00,0,weatherlink.com 1.10,2013-01-16 07:23:00,
2013-01-16 02:38:00,17.1,15.0,30.07,SW,231,0.0,0.0,92,0.00,,,0.00,0,weatherlink.com 1.10,2013-01-16 07:38:00,
2013-01-16 02:53:00,16.8,15.0,30.07,SW,231,0.0,0.0,93,0.00,,,0.00,0,weatherlink.com 1.10,2013-01-16 07:53:00,
2013-01-16 03:08:00,16.5,15.0,30.07,SW,231,0.0,0.0,93,0.00,,,0.00,0,weatherlink.com 1.10,2013-01-16 08:08:00,
2013-01-16 03:23:00,16.6,15.0,30.06,SW,231,0.0,0.0,93,0.00,,,0.00,0,weatherlink.com 1.10,2013-01-16 08:23:00,
2013-01-16 03:38:00,16.8,15.0,30.06,SW,231,0.0,0.0,93,0.00,,,0.00,0,weatherlink.com 1.10,2013-01-16 08:38:00,
2013-01-16 03:53:00,16.8,15.0,30.05,SW,231,0.0,0.0,93,0.00,,,0.00,0,weatherlink.com 1.10,2013-01-16 08:53:00,
2013-01-16 04:08:00,17.1,16.0,30.04,SW,231,0.0,0.0,93,0.00,,,0.00,0,weatherlink.com 1.10,2013-01-16 09:08:00,
2013-01-16 04:23:00,17.1,16.0,30.03,SW,231,0.0,0.0,93,0.00,,,0.00,0,weatherlink.com 1.10,2013-01-16 09:23:00,
2013-01-16 04:38:00,17.3,16.0,30.02,SW,231,0.0,0.0,93,0.00,,,0.00,0,weatherlink.com 1.10,2013-01-16 09:38:00,
2013-01-16 04:53:00,17.2,16.0,30.03,SW,231,0.0,0.0,93,0.00,,,0.00,0,weatherlink.com 1.10,2013-01-16 09:53:00,
2013-01-16 05:08:00,17.2,16.0,30.03,SW,231,0.0,0.0,93,0.00,,,0.00,0,weatherlink.com 1.10,2013-01-16 10:08:00,
2013-01-16 05:23:00,17.5,16.0,30.01,SW,231,0.0,0.0,93,0.00,,,0.00,0,weatherlink.com 1.10,2013-01-16 10:23:00,
2013-01-16 05:38:00,18.5,17.0,30.01,SW,231,0.0,0.0,94,0.00,,,0.00,0,weatherlink.com 1.10,2013-01-16 10:38:00,
2013-01-16 05:53:00,19.4,18.0,30.00,SW,231,0.0,0.0,94,0.00,,,0.00,0,weatherlink.com 1.10,2013-01-16 10:53:00,
2013-01-16 06:08:00,19.8,18.0,29.99,SW,231,0.0,0.0,94,0.00,,,0.00,0,weatherlink.com 1.10,2013-01-16 11:08:00,
2013-01-16 06:23:00,20.0,19.0,29.99,SW,231,0.0,0.0,94,0.00,,,0.00,0,weatherlink.com 1.10,2013-01-16 11:23:00,
2013-01-16 06:39:00,20.5,19.0,29.97,SW,231,0.0,0.0,94,0.00,,,0.00,0,weatherlink.com 1.10,2013-01-16 11:39:00,
2013-01-16 06:54:00,20.8,20.0,29.98,SW,231,0.0,0.0,95,0.00,,,0.00,0,weatherlink.com 1.10,2013-01-16 11:54:00,
2013-01-16 07:09:00,21.1,20.0,29.97,SW,231,0.0,0.0,94,0.00,,,0.00,0,weatherlink.com 1.10,2013-01-16 12:09:00,
2013-01-16 07:24:00,21.2,20.0,29.96,SW,231,0.0,0.0,94,0.00,,,0.00,0,weatherlink.com 1.10,2013-01-16 12:24:00,
2013-01-16 07:39:00,21.1,20.0,29.96,SW,231,0.0,0.0,94,0.00,,,0.00,0,weatherlink.com 1.10,2013-01-16 12:39:00,
2013-01-16 07:54:00,20.7,19.0,29.95,SW,231,0.0,0.0,94,0.00,,,0.00,0,weatherlink.com 1.10,2013-01-16 12:54:00,
2013-01-16 08:09:00,20.3,19.0,29.95,SW,231,0.0,0.0,94,0.00,,,0.00,0,weatherlink.com 1.10,2013-01-16 13:09:00,
2013-01-16 08:24:00,20.5,19.0,29.94,SW,231,0.0,0.0,94,0.00,,,0.00,9,weatherlink.com 1.10,2013-01-16 13:24:00,
2013-01-16 08:39:00,20.8,19.0,29.95,SW,231,0.0,0.0,94,0.00,,,0.00,18,weatherlink.com 1.10,2013-01-16 13:39:00,
2013-01-16 08:54:00,20.7,19.0,29.94,SW,231,0.0,0.0,94,0.00,,,0.00,77,weatherlink.com 1.10,2013-01-16 13:54:00,
2013-01-16 09:09:00,24.4,23.0,29.94,SW,231,0.0,0.0,95,0.00,,,0.00,137,weatherlink.com 1.10,2013-01-16 14:09:00,
2013-01-16 09:24:00,26.1,25.0,29.93,SW,231,0.0,0.0,95,0.00,,,0.00,146,weatherlink.com 1.10,2013-01-16 14:24:00,
2013-01-16 09:39:00,27.6,26.0,29.93,SW,231,0.0,0.0,94,0.00,,,0.00,202,weatherlink.com 1.10,2013-01-16 14:39:00,
2013-01-16 09:54:00,29.3,26.0,29.92,SW,231,0.0,5.0,87,0.00,,,0.00,250,weatherlink.com 1.10,2013-01-16 14:54:00,
2013-01-16 10:09:00,30.8,27.0,29.93,SW,231,3.0,6.0,85,0.00,,,0.00,297,weatherlink.com 1.10,2013-01-16 15:09:00,
2013-01-16 10:24:00,31.3,26.0,29.93,SW,231,3.0,8.0,80,0.00,,,0.00,329,weatherlink.com 1.10,2013-01-16 15:24:00,
2013-01-16 10:39:00,31.8,26.0,29.93,SW,229,3.0,9.0,78,0.00,,,0.00,350,weatherlink.com 1.10,2013-01-16 15:39:00,
2013-01-16 10:54:00,32.1,25.0,29.92,SW,218,2.0,13.0,76,0.00,,,0.00,376,weatherlink.com 1.10,2013-01-16 15:54:00,
2013-01-16 11:10:00,32.4,25.0,29.91,WSW,245,7.0,14.0,75,0.00,,,0.00,396,weatherlink.com 1.10,2013-01-16 16:10:00,
2013-01-16 11:25:00,33.8,26.0,29.91,SW,215,6.0,14.0,72,0.00,,,0.00,425,weatherlink.com 1.10,2013-01-16 16:25:00,
2013-01-16 11:40:00,34.2,26.0,29.89,SW,232,5.0,15.0,73,0.00,,,0.00,454,weatherlink.com 1.10,2013-01-16 16:40:00,
2013-01-16 11:55:00,35.0,26.0,29.88,West,270,11.0,16.0,69,0.00,,,0.00,454,weatherlink.com 1.10,2013-01-16 16:55:00,
2013-01-16 12:10:00,35.7,26.0,29.87,WSW,241,5.0,14.0,67,0.00,,,0.00,459,weatherlink.com 1.10,2013-01-16 17:10:00,
2013-01-16 12:25:00,35.3,25.0,29.86,WSW,252,3.0,15.0,66,0.00,,,0.00,464,weatherlink.com 1.10,2013-01-16 17:25:00,
2013-01-16 12:40:00,36.0,25.0,29.85,SW,214,7.0,13.0,64,0.00,,,0.00,462,weatherlink.com 1.10,2013-01-16 17:40:00,
2013-01-16 12:55:00,37.3,24.0,29.83,SW,230,10.0,14.0,60,0.00,,,0.00,468,weatherlink.com 1.10,2013-01-16 17:55:00,
2013-01-16 13:10:00,37.8,24.0,29.82,SSW,204,3.0,14.0,58,0.00,,,0.00,464,weatherlink.com 1.10,2013-01-16 18:10:00,
2013-01-16 13:25:00,38.5,23.0,29.82,SW,236,7.0,11.0,55,0.00,,,0.00,454,weatherlink.com 1.10,2013-01-16 18:25:00,
2013-01-16 13:40:00,37.9,24.0,29.81,SW,224,6.0,16.0,57,0.00,,,0.00,443,weatherlink.com 1.10,2013-01-16 18:40:00,
2013-01-16 13:55:00,38.6,22.0,29.80,SSW,209,7.0,15.0,52,0.00,,,0.00,429,weatherlink.com 1.10,2013-01-16 18:55:00,
2013-01-16 14:10:00,39.1,22.0,29.80,SW,232,16.0,16.0,50,0.00,,,0.00,408,weatherlink.com 1.10,2013-01-16 19:10:00,
2013-01-16 14:25:00,39.2,21.0,29.80,SW,219,11.0,13.0,49,0.00,,,0.00,388,weatherlink.com 1.10,2013-01-16 19:25:00,
2013-01-16 14:40:00,38.7,21.0,29.80,SSW,210,10.0,16.0,49,0.00,,,0.00,364,weatherlink.com 1.10,2013-01-16 19:40:00,
2013-01-16 14:55:00,39.0,21.0,29.79,SW,224,7.0,12.0,49,0.00,,,0.00,336,weatherlink.com 1.10,2013-01-16 19:55:00,
2013-01-16 15:10:00,38.9,22.0,29.80,SSW,198,7.0,17.0,51,0.00,,,0.00,306,weatherlink.com 1.10,2013-01-16 20:10:00,
2013-01-16 15:25:00,38.0,21.0,29.80,SW,217,6.0,15.0,51,0.00,,,0.00,269,weatherlink.com 1.10,2013-01-16 20:25:00,
2013-01-16 15:40:00,38.2,21.0,29.80,SW,215,4.0,14.0,51,0.00,,,0.00,225,weatherlink.com 1.10,2013-01-16 20:40:00,
2013-01-16 15:55:00,37.5,21.0,29.80,SW,219,5.0,20.0,51,0.00,,,0.00,172,weatherlink.com 1.10,2013-01-16 20:55:00,
2013-01-16 16:10:00,37.2,21.0,29.80,SSW,206,9.0,20.0,52,0.00,,,0.00,127,weatherlink.com 1.10,2013-01-16 21:10:00,
2013-01-16 16:25:00,36.5,21.0,29.80,WSW,251,12.0,15.0,54,0.00,,,0.00,37,weatherlink.com 1.10,2013-01-16 21:25:00,
2013-01-16 16:40:00,35.9,21.0,29.80,SSW,197,12.0,14.0,56,0.00,,,0.00,26,weatherlink.com 1.10,2013-01-16 21:40:00,
2013-01-16 16:55:00,35.2,22.0,29.81,SW,223,3.0,17.0,58,0.00,,,0.00,19,weatherlink.com 1.10,2013-01-16 21:55:00,
2013-01-16 17:10:00,35.0,22.0,29.81,WSW,252,5.0,17.0,59,0.00,,,0.00,11,weatherlink.com 1.10,2013-01-16 22:10:00,
2013-01-16 17:25:00,35.5,22.0,29.82,WSW,249,10.0,17.0,58,0.00,,,0.00,0,weatherlink.com 1.10,2013-01-16 22:25:00,
2013-01-16 17:40:00,35.4,22.0,29.82,WSW,250,14.0,17.0,59,0.00,,,0.00,0,weatherlink.com 1.10,2013-01-16 22:40:00,
2013-01-16 17:55:00,35.5,22.0,29.82,SW,219,12.0,17.0,58,0.00,,,0.00,0,weatherlink.com 1.10,2013-01-16 22:55:00,
2013-01-16 18:10:00,35.6,22.0,29.83,SSW,212,8.0,17.0,58,0.00,,,0.00,0,weatherlink.com 1.10,2013-01-16 23:10:00,
2013-01-16 18:25:00,35.6,22.0,29.83,SW,215,7.0,11.0,59,0.00,,,0.00,0,weatherlink.com 1.10,2013-01-16 23:25:00,
2013-01-16 18:40:00,35.2,24.0,29.83,SSW,200,5.0,14.0,63,0.00,,,0.00,0,weatherlink.com 1.10,2013-01-16 23:40:00,
2013-01-16 18:55:00,35.0,24.0,29.84,SW,217,9.0,14.0,65,0.00,,,0.00,0,weatherlink.com 1.10,2013-01-16 23:55:00,
2013-01-16 19:10:00,34.7,24.0,29.85,SSW,211,5.0,15.0,66,0.00,,,0.00,0,weatherlink.com 1.10,2013-01-17 00:10:00,
2013-01-16 19:25:00,34.4,24.0,29.85,SW,226,15.0,16.0,66,0.00,,,0.00,0,weatherlink.com 1.10,2013-01-17 00:25:00,
2013-01-16 19:40:00,34.2,23.0,29.86,SW,220,0.0,15.0,65,0.00,,,0.00,0,weatherlink.com 1.10,2013-01-17 00:40:00,
2013-01-16 19:55:00,34.5,23.0,29.86,SW,228,7.0,19.0,64,0.00,,,0.00,0,weatherlink.com 1.10,2013-01-17 00:55:00,
2013-01-16 20:10:00,34.4,23.0,29.86,SW,232,11.0,16.0,64,0.00,,,0.00,0,weatherlink.com 1.10,2013-01-17 01:10:00,
2013-01-16 20:25:00,34.3,24.0,29.86,SW,222,6.0,13.0,65,0.00,,,0.00,0,weatherlink.com 1.10,2013-01-17 01:25:00,
2013-01-16 20:40:00,34.2,24.0,29.87,WSW,248,3.0,14.0,66,0.00,,,0.00,0,weatherlink.com 1.10,2013-01-17 01:40:00,
2013-01-16 20:55:00,34.3,24.0,29.88,SW,232,0.0,11.0,66,0.00,,,0.00,0,weatherlink.com 1.10,2013-01-17 01:55:00,
2013-01-16 21:10:00,34.3,24.0,29.89,WSW,240,6.0,11.0,67,0.00,,,0.00,0,weatherlink.com 1.10,2013-01-17 02:10:00,
2013-01-16 21:25:00,34.5,24.0,29.89,WNW,286,3.0,18.0,66,0.00,,,0.00,0,weatherlink.com 1.10,2013-01-17 02:25:00,
2013-01-16 21:40:00,35.0,24.0,29.89,West,263,7.0,14.0,65,0.00,,,0.00,0,weatherlink.com 1.10,2013-01-17 02:40:00,
2013-01-16 21:55:00,35.0,24.0,29.90,SW,235,11.0,17.0,65,0.00,,,0.00,0,weatherlink.com 1.10,2013-01-17 02:55:00,
2013-01-16 22:10:00,34.9,25.0,29.90,WSW,248,5.0,16.0,67,0.00,,,0.00,0,weatherlink.com 1.10,2013-01-17 03:10:00,
2013-01-16 22:25:00,34.8,25.0,29.91,West,262,2.0,15.0,68,0.00,,,0.00,0,weatherlink.com 1.10,2013-01-17 03:25:00,
2013-01-16 22:40:00,34.7,25.0,29.91,West,262,2.0,18.0,69,0.00,,,0.00,0,weatherlink.com 1.10,2013-01-17 03:40:00,
2013-01-16 22:55:00,34.7,26.0,29.91,West,262,2.0,16.0,70,0.00,,,0.00,0,weatherlink.com 1.10,2013-01-17 03:55:00,
2013-01-16 23:10:00,34.7,26.0,29.91,WSW,249,5.0,14.0,71,0.00,,,0.00,0,weatherlink.com 1.10,2013-01-17 04:10:00,
2013-01-16 23:25:00,34.8,27.0,29.91,WSW,254,9.0,14.0,72,0.00,,,0.00,0,weatherlink.com 1.10,2013-01-17 04:25:00,
2013-01-16 23:40:00,34.7,27.0,29.91,SW,233,9.0,14.0,74,0.00,,,0.00,0,weatherlink.com 1.10,2013-01-17 04:40:00,
2013-01-16 23:55:00,34.7,28.0,29.92,WSW,248,5.0,16.0,75,0.00,,,0.00,0,weatherlink.com 1.10,2013-01-17 04:55:00,